When you browse on this site, cookies collect data to enhance your experience and personalize the content and advertising you see.
Visit our Privacy Policy to learn more. By continuing to use the site, you agree to this use of cookies and data.
  • In Switzerland
  • List of Countries
  • For 7 days
  • Water Temperature
  • Satellite Maps
  • Weather Map
  • Weather Widgets
  • user-avatar
    Login

    Hourly Weather Francistown

    Today, 18 November, Sunday

    Time Temperature Precipitation Wind Pressure Humidity
    00:00 +28°C° 0 mm 4 mps 677 mmHg 22%
    01:00 +27°C° 0 mm 4 mps 677 mmHg 25%
    02:00 +26°C° 0 mm 4 mps 677 mmHg 30%
    03:00 +26°C° 0 mm 4 mps 677 mmHg 33%
    04:00 +25°C° 0 mm 4 mps 677 mmHg 36%
    05:00 +25°C° 0 mm 4 mps 677 mmHg 40%
    06:00 +27°C° 0 mm 5 mps 677 mmHg 37%
    07:00 +29°C° 0 mm 6 mps 678 mmHg 35%
    08:00 +32°C° 0 mm 7 mps 679 mmHg 32%
    09:00 +34°C° 0 mm 7 mps 679 mmHg 27%
    10:00 +36°C° 0 mm 6 mps 679 mmHg 23%
    11:00 +39°C° 0 mm 6 mps 679 mmHg 18%
    12:00 +40°C° 0 mm 6 mps 678 mmHg 16%
    13:00 +40°C° 0 mm 6 mps 678 mmHg 15%
    14:00 +41°C° 0 mm 6 mps 677 mmHg 13%
    15:00 +40°C° 0 mm 7 mps 677 mmHg 14%
    16:00 +40°C° 0 mm 7 mps 676 mmHg 14%
    17:00 +39°C° 0 mm 7 mps 676 mmHg 15%
    18:00 +36°C° 0 mm 7 mps 676 mmHg 18%
    19:00 +34°C° 0 mm 6 mps 676 mmHg 22%
    20:00 +32°C° 0 mm 6 mps 676 mmHg 26%
    21:00 +32°C° 0 mm 6 mps 677 mmHg 28%
    22:00 +30°C° 0 mm 6 mps 677 mmHg 30%
    23:00 +29°C° 0 mm 6 mps 677 mmHg 32%

    Tomorrow, 19 November, Monday

    Time Temperature Precipitation Wind Pressure Humidity
    00:00 +28°C° 0 mm 6 mps 677 mmHg 36%
    01:00 +27°C° 0 mm 6 mps 677 mmHg 40%
    02:00 +26°C° 0 mm 7 mps 677 mmHg 44%
    03:00 +24°C° 0 mm 7 mps 677 mmHg 51%
    04:00 +24°C° 0 mm 7 mps 677 mmHg 57%
    05:00 +23°C° 0 mm 7 mps 678 mmHg 63%
    06:00 +23°C° 0 mm 8 mps 678 mmHg 62%
    07:00 +23°C° 0 mm 8 mps 679 mmHg 61%
    08:00 +24°C° 0 mm 9 mps 679 mmHg 60%
    09:00 +27°C° 0 mm 8 mps 679 mmHg 51%
    10:00 +31°C° 0 mm 8 mps 679 mmHg 41%
    11:00 +33°C° 0 mm 8 mps 679 mmHg 32%
    12:00 +35°C° 0 mm 7 mps 679 mmHg 28%
    13:00 +36°C° 0 mm 6 mps 678 mmHg 23%
    14:00 +39°C° 0 mm 5 mps 678 mmHg 19%
    15:00 +37°C° 0 mm 5 mps 677 mmHg 19%
    16:00 +38°C° 0 mm 6 mps 677 mmHg 19%
    17:00 +38°C° 0 mm 6 mps 676 mmHg 19%
    18:00 +35°C° 0 mm 5 mps 676 mmHg 23%
    19:00 +33°C° 0 mm 5 mps 676 mmHg 27%
    20:00 +30°C° 0 mm 4 mps 676 mmHg 31%
    21:00 +29°C° 0 mm 4 mps 676 mmHg 34%
    22:00 +28°C° 0 mm 5 mps 677 mmHg 37%
    23:00 +28°C° 0 mm 5 mps 677 mmHg 40%

    Day after tomorrow, 20 November, Tuesday

    Time Temperature Precipitation Wind Pressure Humidity
    00:00 +27°C° 0 mm 5 mps 677 mmHg 43%
    01:00 +26°C° 0 mm 4 mps 676 mmHg 46%
    02:00 +25°C° 0 mm 4 mps 676 mmHg 49%
    03:00 +25°C° 0 mm 3 mps 675 mmHg 51%
    04:00 +24°C° 0 mm 3 mps 675 mmHg 53%
    05:00 +22°C° 0 mm 3 mps 675 mmHg 54%
    06:00 +26°C° 0 mm 4 mps 676 mmHg 47%
    07:00 +28°C° 0 mm 5 mps 677 mmHg 39%
    08:00 +30°C° 0 mm 5 mps 678 mmHg 32%
    09:00 +33°C° 0 mm 5 mps 678 mmHg 27%
    10:00 +36°C° 0 mm 5 mps 678 mmHg 22%
    11:00 +38°C° 0 mm 4 mps 678 mmHg 17%
    12:00 +40°C° 0 mm 3 mps 677 mmHg 15%
    13:00 +41°C° 0 mm 2 mps 676 mmHg 13%
    14:00 +42°C° 0 mm 1 mps 676 mmHg 11%
    15:00 +41°C° 0 mm 1 mps 675 mmHg 11%
    16:00 +41°C° 0 mm 2 mps 675 mmHg 11%
    17:00 +40°C° 0 mm 2 mps 674 mmHg 11%
    18:00 +38°C° 0 mm 2 mps 674 mmHg 13%
    19:00 +36°C° 0 mm 2 mps 674 mmHg 15%
    20:00 +34°C° 0 mm 2 mps 674 mmHg 17%
    21:00 +32°C° 0 mm 2 mps 674 mmHg 18%
    22:00 +31°C° 0 mm 3 mps 675 mmHg 19%
    23:00 +30°C° 0 mm 3 mps 675 mmHg 21%

    21 November, Wednesday

    Time Temperature Precipitation Wind Pressure Humidity
    00:00 +29°C° 0 mm 3 mps 674 mmHg 22%
    01:00 +29°C° 0 mm 3 mps 674 mmHg 23%
    02:00 +28°C° 0 mm 3 mps 673 mmHg 24%
    03:00 +27°C° 0 mm 2 mps 673 mmHg 26%
    04:00 +27°C° 0 mm 2 mps 673 mmHg 28%
    05:00 +26°C° 0 mm 1 mps 673 mmHg 30%
    06:00 +28°C° 0 mm 2 mps 674 mmHg 27%
    07:00 +30°C° 0 mm 3 mps 675 mmHg 24%
    08:00 +34°C° 0 mm 3 mps 675 mmHg 21%
    09:00 +36°C° 0 mm 4 mps 676 mmHg 19%
    10:00 +38°C° 0 mm 4 mps 676 mmHg 17%
    11:00 +42°C° 0 mm 5 mps 676 mmHg 14%
    12:00 +42°C° 0 mm 4 mps 675 mmHg 14%
    13:00 +42°C° 0 mm 4 mps 674 mmHg 14%
    14:00 +42°C° 0 mm 3 mps 674 mmHg 14%
    15:00 +42°C° 0 mm 3 mps 674 mmHg 14%
    16:00 +42°C° 0 mm 3 mps 673 mmHg 14%
    17:00 +40°C° 0 mm 3 mps 673 mmHg 14%
    18:00 +38°C° 0.1 mm 3 mps 674 mmHg 17%
    19:00 +36°C° 0.1 mm 3 mps 674 mmHg 21%
    20:00 +34°C° 0.1 mm 2 mps 674 mmHg 25%
    21:00 +33°C° 0.1 mm 3 mps 674 mmHg 28%
    22:00 +31°C° 0.1 mm 3 mps 674 mmHg 30%
    23:00 +30°C° 0.1 mm 4 mps 674 mmHg 33%

    22 November, Thursday

    Time Temperature Precipitation Wind Pressure Humidity
    00:00 +30°C° 0.1 mm 3 mps 674 mmHg 35%
    01:00 +29°C° 0.1 mm 3 mps 674 mmHg 37%
    02:00 +29°C° 0.1 mm 2 mps 674 mmHg 39%
    03:00 +28°C° 0.1 mm 4 mps 674 mmHg 44%
    04:00 +27°C° 0.1 mm 5 mps 674 mmHg 49%
    05:00 +26°C° 0.1 mm 6 mps 674 mmHg 54%
    06:00 +26°C° 0 mm 6 mps 675 mmHg 56%
    07:00 +26°C° 0 mm 6 mps 675 mmHg 58%
    08:00 +26°C° 0 mm 6 mps 676 mmHg 60%
    09:00 +28°C° 0 mm 6 mps 676 mmHg 54%
    10:00 +29°C° 0 mm 6 mps 676 mmHg 48%
    11:00 +32°C° 0 mm 5 mps 676 mmHg 42%
    12:00 +34°C° 0 mm 5 mps 676 mmHg 36%
    13:00 +36°C° 0 mm 5 mps 675 mmHg 30%
    14:00 +38°C° 0 mm 4 mps 675 mmHg 24%
    15:00 +38°C° 0 mm 4 mps 675 mmHg 23%
    16:00 +38°C° 0 mm 4 mps 674 mmHg 21%
    17:00 +38°C° 0 mm 4 mps 674 mmHg 20%
    18:00 +36°C° 0 mm 5 mps 674 mmHg 27%
    19:00 +33°C° 0 mm 5 mps 675 mmHg 33%
    20:00 +30°C° 0 mm 6 mps 675 mmHg 40%
    21:00 +29°C° 0 mm 6 mps 675 mmHg 45%
    22:00 +27°C° 0 mm 6 mps 675 mmHg 51%
    23:00 +26°C° 0 mm 6 mps 675 mmHg 56%

    23 November, Friday

    Time Temperature Precipitation Wind Pressure Humidity
    00:00 +26°C° 0 mm 6 mps 675 mmHg 59%
    01:00 +24°C° 0 mm 6 mps 674 mmHg 61%
    02:00 +24°C° 0 mm 6 mps 674 mmHg 64%
    03:00 +25°C° 0 mm 5 mps 674 mmHg 65%
    04:00 +25°C° 0 mm 5 mps 675 mmHg 66%
    05:00 +25°C° 0 mm 4 mps 675 mmHg 67%
    06:00 +25°C° 0 mm 4 mps 676 mmHg 65%
    07:00 +26°C° 0 mm 4 mps 677 mmHg 63%
    08:00 +26°C° 0 mm 4 mps 678 mmHg 61%
    09:00 +27°C° 0.4 mm 4 mps 678 mmHg 58%
    10:00 +28°C° 0.4 mm 4 mps 678 mmHg 55%
    11:00 +28°C° 0.4 mm 4 mps 678 mmHg 52%
    12:00 +29°C° 1.5 mm 4 mps 677 mmHg 52%
    13:00 +29°C° 1.5 mm 4 mps 677 mmHg 53%
    14:00 +29°C° 1.5 mm 3 mps 676 mmHg 53%
    15:00 +27°C° 7.1 mm 3 mps 676 mmHg 61%
    16:00 +26°C° 7.1 mm 3 mps 675 mmHg 69%
    17:00 +24°C° 7.1 mm 2 mps 675 mmHg 77%
    18:00 +24°C° 0.3 mm 2 mps 675 mmHg 76%
    19:00 +24°C° 0.3 mm 3 mps 676 mmHg 75%
    20:00 +24°C° 0.3 mm 3 mps 676 mmHg 74%
    21:00 +22°C° 0 mm 3 mps 675 mmHg 77%
    22:00 +22°C° 0 mm 4 mps 675 mmHg 79%
    23:00 +21°C° 0 mm 5 mps 674 mmHg 82%
    Show more